Location: Nelson
(41.2830°S, 173.2830°E)
Time: 23:37:06
(UTC+13:00)

USA 238 - Pass Details

Date: 24 January 2019
Orbit: 1046 x 1166 km, 63.4° (Epoch: 17 February)

Event Time Altitude Azimuth Distance (km) Brightness Sun altitude
Rises 22:14:03 0° 358° (N) 4,028 6.3 -13.1°
Reaches altitude 10° 22:17:03 10° 7° (N) 3,070 5.7 -13.6°
Maximum altitude 22:23:28 34° 68° (ENE) 1,826 4.4 -14.5°
Drops below altitude 10° 22:29:51 10° 129° (SE) 3,051 6.0 -15.3°
Sets 22:32:48 0° 137° (SE) 4,000 6.7 -15.7°
